Location: Unspecified
(0.0000°N, 0.0000°E)
Time: 08:58:39
(UTC+00:00)

Courier 1B Rocket - Pass Details

Date: 19 December 2018
Orbit: 920 x 1202 km, 28.2° (Epoch: 22 March)

Event Time Altitude Azimuth Distance (km) Brightness Sun altitude
Rises 02:05:38 0° 223° (SW) 3,738 - -51.0°
Reaches altitude 10° 02:08:43 10° 213° (SSW) 2,742 - -50.4°
Maximum altitude 02:14:26 31° 153° (SSE) 1,601 - -49.2°
Drops below altitude 10° 02:19:55 10° 92° (E) 2,622 - -48.1°
Exits shadow 02:20:25 - 90° (E) 2,777 7.8 -48.0°
Sets 02:22:47 0° 82° (E) 3,550 8.4 -47.6°
